Powrót do katalogu

SATCOM K1 R/B

PAM-D2

AktywnyHEO
NORAD 16483·ROCKET BODY·🇺🇸 United States

Wystrzelony Jan 12, 1986 z Cape Canaveral Space Force Station

Loading…

Następne Przeloty (najbliższe 24 godziny)

TLE

ŚwieżeSource: Space-Track

Epoka: Sep 12, 2026, 21:07 UTC

1 16483U 86003C   26255.88021328  .00000589  00000-0  50289-3 0  9990
2 16483  26.8549 132.4675 7068751 161.1730 251.5279  2.50015785356388

Śledź SATCOM K1 R/B w czasie rzeczywistym z AllMySat

Download on the App Store